HS5AM-10 Weather Reports


time (UTC)temp
C
wind
direction
speed
KPH
gust
KPH
rain 1hr
cm
rain 24hr
cm
rain mn
cm
humidity
%
barometer
mb
20260505031954 30 0 0.0 0.0 0.00 0.00 0.00 70 987.0
20260505030826 29 0 0.0 0.0 0.00 0.00 0.00 72 987.0
20260505025659 29 0 0.0 0.0 0.00 0.00 0.00 73 987.0
20260505024532 29 0 0.0 0.0 0.00 0.00 0.00 74 987.0
20260505023414 29 0 0.0 0.0 0.00 0.00 0.00 75 987.0
20260505023404 29 0 0.0 0.0 0.00 0.00 0.00 75 987.0
20260505022237 29 0 0.0 0.0 0.00 0.00 0.00 76 987.0
20260505021110 28 0 0.0 0.0 0.00 0.00 0.00 76 987.0
20260505015942 28 0 0.0 0.0 0.00 0.00 0.00 76 987.0
20260505014814 28 0 0.0 0.0 0.00 0.00 0.00 76 987.0
20260505013646 28 0 0.0 0.0 0.00 0.00 0.00 76 987.0
20260505012519 28 0 0.0 0.0 0.00 0.00 0.00 76 986.0
20260505011351 28 0 0.0 0.0 0.00 0.00 0.00 76 986.0
20260505010224 28 0 0.0 0.0 0.00 0.00 0.00 76 986.0
20260505005057 28 0 0.0 0.0 0.00 0.00 0.00 76 986.0
20260505003930 28 0 0.0 0.0 0.00 0.00 0.00 75 986.0
20260505002803 28 0 0.0 0.0 0.00 0.00 0.00 74 986.0
20260505001645 29 0 0.0 0.0 0.00 0.00 0.00 73 986.0
20260505001635 29 0 0.0 0.0 0.00 0.00 0.00 73 986.0
20260505000507 29 0 0.0 0.0 0.00 0.00 0.00 69 985.0
20260504235340 29 0 0.0 0.0 0.00 0.00 0.00 68 985.0
20260504234212 29 0 0.0 0.0 0.00 0.00 0.00 68 985.0
20260504233044 30 0 0.0 0.0 0.00 0.00 0.00 67 985.0
20260504231923 29 0 0.0 0.0 0.00 0.00 0.00 67 985.0
20260504230729 30 0 0.0 0.0 0.00 0.00 0.00 67 984.0
20260504225705 30 0 0.0 0.0 0.00 0.00 0.00 67 984.0
20260504224640 30 0 0.0 0.0 0.00 0.00 0.00 66 984.0
20260504223616 30 0 0.0 0.0 0.00 0.00 0.00 66 984.0
20260504222553 30 0 0.0 0.0 0.00 0.00 0.00 66 984.0
20260504221529 30 0 0.0 0.0 0.00 0.00 0.00 66 984.0
20260504220505 30 0 0.0 0.0 0.00 0.00 0.00 65 984.0
20260504215441 30 0 0.0 0.0 0.00 0.00 0.00 65 984.0
20260504214417 30 0 0.0 0.0 0.00 0.00 0.00 65 984.0
20260504213353 30 0 0.0 0.0 0.00 0.00 0.00 65 984.0
20260504212329 30 0 0.0 0.0 0.00 0.00 0.00 65 984.0
20260504211305 30 0 0.0 0.0 0.00 0.00 0.00 65 984.0
20260504210241 30 0 0.0 0.0 0.00 0.00 0.00 65 984.0
20260504205217 30 0 0.0 0.0 0.00 0.00 0.00 64 984.0
20260504204153 30 0 0.0 0.0 0.00 0.00 0.00 64 984.0
20260504203129 30 0 0.0 0.0 0.00 0.00 0.00 64 984.0
20260504202104 30 0 0.0 0.0 0.00 0.00 0.00 64 984.0
20260504201040 30 0 0.0 0.0 0.00 0.00 0.00 63 984.0
20260504200016 30 0 0.0 0.0 0.00 0.00 0.00 63 984.0
20260504194951 30 0 0.0 0.0 0.00 0.00 0.00 63 984.0
20260504193928 31 0 0.0 0.0 0.00 0.00 0.00 63 984.0
20260504192904 31 0 0.0 0.0 0.00 0.00 0.00 63 984.0
20260504191840 31 0 0.0 0.0 0.00 0.00 0.00 63 984.0
20260504190816 31 0 0.0 0.0 0.00 0.00 0.00 63 984.0
20260504185752 31 0 0.0 0.0 0.00 0.00 0.00 62 985.0
20260504184728 31 0 0.0 0.0 0.00 0.00 0.00 62 985.0
20260504183704 31 0 0.0 0.0 0.00 0.00 0.00 62 985.0
20260504182640 31 0 0.0 0.0 0.00 0.00 0.00 61 985.0
20260504181616 31 0 0.0 0.0 0.00 0.00 0.00 61 985.0
20260504180551 31 0 0.0 0.0 0.00 0.00 0.00 61 985.0
20260504175539 31 0 0.0 0.0 0.00 0.00 0.00 60 985.0
20260504175528 31 0 0.0 0.0 0.00 0.00 0.00 60 985.0
20260504174504 31 0 0.0 0.0 0.00 0.00 0.00 60 986.0
20260504173440 32 0 0.0 0.0 0.00 0.00 0.00 59 986.0
20260504172416 32 0 0.0 0.0 0.00 0.00 0.00 59 986.0
20260504171352 32 0 0.0 0.0 0.00 0.00 0.00 59 986.0
20260504170328 32 0 0.0 0.0 0.00 0.00 0.00 59 986.0
20260504160105 33 0 0.0 0.0 0.00 0.00 0.00 57 986.0
20260504150905 33 0 0.0 0.0 0.00 0.00 0.00 56 984.0
20260504140641 35 0 0.0 0.0 0.00 0.00 0.00 54 982.0
20260504130417 36 0 0.0 0.0 0.00 0.00 0.00 51 980.0
20260504120153 39 0 0.0 0.0 0.00 0.00 0.00 36 979.0
20260504081306 42 0 0.0 0.0 0.00 0.00 0.00 27 979.0
20260504080242 42 0 0.0 0.0 0.00 0.00 0.00 27 979.0
20260504050555 37 0 0.0 0.0 0.00 0.00 0.00 37 983.0
20260504045531 36 0 0.0 0.0 0.00 0.00 0.00 39 983.0
20260504044507 36 0 0.0 0.0 0.00 0.00 0.00 41 983.0
20260504043443 36 0 0.0 0.0 0.00 0.00 0.00 42 983.0
20260504042420 36 0 0.0 0.0 0.00 0.00 0.00 42 983.0
20260504041356 35 0 0.0 0.0 0.00 0.00 0.00 44 983.0
20260504040332 35 0 0.0 0.0 0.00 0.00 0.00 44 983.0
20260504035308 35 0 0.0 0.0 0.00 0.00 0.00 45 983.0
20260504034244 34 0 0.0 0.0 0.00 0.00 0.00 46 983.0
20260504033220 34 0 0.0 0.0 0.00 0.00 0.00 47 984.0